www.pogodaiklimat.ru
ПОГОДА в Пеканбару
Время
(UTC), дата
03 9.12
06 9.12
09 9.12
12 9.12
15 9.12
18 9.12
21 9.12
00 10.12
03 10.12
06 10.12
09 10.12
12 10.12
15 10.12
18 10.12
21 10.12
00 11.12
03 11.12
06 11.12
09 11.12
12 11.12
15 11.12
18 11.12
21 11.12
00 12.12
03 12.12
06 12.12
09 12.12
12 12.12
15 12.12
18 12.12
21 12.12
00 13.12
03 13.12
06 13.12
09 13.12
12 13.12
15 13.12
18 13.12
21 13.12
00 14.12
03 14.12
06 14.12
09 14.12
12 14.12
15 14.12
18 14.12
21 14.12
00 15.12
03 15.12
06 15.12
09 15.12
12 15.12
15 15.12
18 15.12
21 15.12
00 16.12
Ветер
(напр.,м/с)
Видим. Явления Облачность Т
(С)
Тd
(С)
f
(%)
Тe
(С)
Тes
(С)
Комфортность P
(гПа)
Po
(гПа)
Тmin
(С)
Tmax
(С)
R
(мм)
R24
(мм)
S
(см)
СВ 3 10 км 9/6 300 м
[Cu med, cong Ac trans Ci sp]
+27.5 +24.8 85 +39 +42 очень
душно
1012.5 1008.9
С 5 9000 м 9/8 360 м
[Cu med, cong Ac trans Ci sp]
+29.8 +24.5 73 +42 +43 опасность
перегрева
1009.5 1006.0
С 4 5000 м гроза, ливневой дождь 10/8 300 м
[Cb cap As op Ci sp]
+24.9 +24.8 99 +35 +35 очень
душно
1008.6 1005.0 5
штиль 0 8000 м {гроза, дождь} 9/4 500 м
[Sc Ac trans Ci sp]
+25.4 +24.9 97 +36 +36 очень
душно
1010.3 1006.7 +30.6 1
штиль 0 7000 м 10/4 450 м
[Sc Ac trans Ci sp]
+24.7 +24.6 99 +35 +35 очень
душно
1012.3 1008.8
ЮЗ 2 7000 м 10/4 450 м
[Sc Ac As Ci sp]
+24.1 +24.1 100 +33 +33 очень
душно
1011.5 1007.9
штиль 0 7000 м 10/5 400 м
[Sc Ac As Ci sp]
+23.9 +23.9 100 +33 +33 очень
душно
1009.6 1006.0
Ю 3 6000 м 10/4 400 м
[Sc Ac As Ci sp]
+24.1 +24.1 100 +33 +33 очень
душно
1010.5 1006.9 +23.4 6
СВ 3 10 км 9/5 360 м
[Cu med, cong Ac trans Ci sp]
+28.0 +24.2 80 +39 +42 очень
душно
1011.7 1008.0
В 3 6000 м слаб. дождь 9/6 450 м
[Cb cap Ac trans Ci sp]
+30.0 +23.7 69 +41 +45 опасность
перегрева
1009.1 1005.4 0.0
Ю 3 8000 м слаб. дождь 9/6 360 м
[Cb cap Ac trans Ci sp]
+26.4 +25.9 97 +39 +40 очень
душно
1006.8 1003.2 3
штиль 0 8000 м {дождь} 9/4 400 м
[Sc Ac As Cs]
+25.8 +25.7 99 +38 +38 очень
душно
1008.0 1004.5 +31.0 0.2
штиль 0 6000 м 8/4 400 м
[Sc Ac trans Ci sp]
+25.3 +25.2 99 +36 +36 очень
душно
1010.1 1006.5
штиль 0 6000 м 9/4 400 м
[Sc Ac trans Ci sp]
+25.1 +25.1 100 +36 +36 очень
душно
1009.7 1006.1
С 3 6000 м 9/4 400 м
[Sc Ac trans Ci sp]
+23.8 +23.5 98 +32 +32 очень
душно
1008.2 1004.7
штиль 0 6000 м в посл. час дождь 9/5 400 м
[Sc Ac As Ci sp]
+24.0 +24.0 100 +33 +33 очень
душно
1009.8 1006.3 +23.4 0.6
СВ 3 10 км 10/5 360 м
[Sc Ac trans Ci sp]
+27.2 +24.2 84 +38 +41 очень
душно
1011.2 1007.5
С 3 9000 м в посл. час дождь 10/5 450 м
[Cu med, cong Ac trans Ci sp]
+29.2 +24.6 76 +41 +45 опасность
перегрева
1008.6 1004.9 0.6
В 4 8000 м в посл. час гроза {дождь} 10/6 360 м
[Sc Ac trans Ci sp]
+27.4 +25.2 88 +40 +41 очень
душно
1007.2 1003.5 0.0
штиль 0 8000 м {гроза, дождь} 9/4 450 м
[Sc Ac trans Ci sp]
+25.4 +24.2 93 +35 +35 очень
душно
1009.2 1005.5 +29.4 0.0
штиль 0 7000 м 10/5 450 м
[Sc Ac trans Ci sp]
+24.5 +24.4 99 +34 +34 очень
душно
1010.9 1007.3
штиль 0 6000 м 10/5 450 м
[Sc Ac trans Ci sp]
+24.3 +24.3 100 +34 +34 очень
душно
1010.4 1006.9
штиль 0 5000 м мгла 10/6 300 м
[Sc Ac trans Ci sp]
+24.2 +24.2 100 +33 +33 очень
душно
1009.0 1005.4
штиль 0 5000 м мгла 8/3 360 м
[Sc Ac trans Ci sp]
+24.3 +24.2 99 +33 +34 очень
душно
1010.3 1006.7 +23.8 0.6
СВ 4 10 км 9/5 400 м
[Cu med, cong Ac trans Ci sp]
+28.1 +23.6 77 +39 +41 очень
душно
1011.3 1007.7
В 3 10 км 9/6 400 м
[Cu med, cong Ac trans Ci sp]
+31.1 +24.2 67 +43 +47 опасность
перегрева
1008.3 1004.8
З 3 8000 м гроза без осадков 9/6 360 м
[Cb cap Ac trans Ci sp]
+27.4 +24.8 86 +39 +40 очень
душно
1006.8 1003.1 0.2
штиль 0 5000 м мгла {гроза, дождь} 9/3 400 м
[Cu Sc Ac trans Ci sp]
+25.7 +25.2 97 +37 +37 очень
душно
1008.5 1004.8 +31.2 0.1
штиль 0 7000 м 9/4 450 м
[Cu med, cong Ac trans Ci sp]
+25.4 +24.4 94 +35 +35 очень
душно
1010.9 1007.2
штиль 0 8000 м 10/4 450 м
[Sc Ac trans Ci sp]
+25.2 +24.4 95 +35 +35 очень
душно
1010.2 1006.5
штиль 0 8000 м 10/4 450 м
[Sc Ac trans Ci sp]
+24.4 +24.1 98 +34 +34 очень
душно
1009.7 1006.0
штиль 0 7000 м 9/3 300 м
[Sc Ac trans Ci sp]
+24.8 +24.5 98 +35 +35 очень
душно
1011.1 1007.4 +23.7 2
СВ 4 8000 м 9/5 450 м
[Cu med, cong Ac trans Ci sp]
+28.7 +23.1 72 +39 +41 очень
душно
1012.5 1008.9
СВ 4 10 км 9/3 450 м
[Sc Ac trans Ci sp]
+30.6 +22.7 63 +40 +46 очень
душно
1010.0 1006.5
СВ 3 9000 м 8/4 450 м
[Cu med, cong Ac trans Ci sp]
+31.7 +21.7 55 +40 +42 очень
душно
1007.7 1004.1
СВ 2 8000 м 9/4 450 м
[Cu med, cong Ac trans Ci sp]
+28.2 +23.4 75 +38 +38 очень
душно
1009.3 1005.7 +31.8
штиль 0 8000 м 9/4 450 м
[Sc Ac trans Ci sp]
+27.0 +23.4 81 +37 +37 очень
душно
1011.6 1008.0
штиль 0 8000 м 9/5 450 м
[Sc Ac trans Ci sp]
+25.5 +24.1 92 +35 +35 очень
душно
1011.0 1007.5
штиль 0 8000 м 9/5 450 м
[Sc Ac trans Ci sp]
+24.8 +23.4 92 +33 +33 очень
душно
1009.9 1006.3
штиль 0 7000 м 9/3 400 м
[Sc Ac trans Ci sp]
+24.4 +23.3 94 +33 +33 очень
душно
1011.0 1007.5 +23.8
СВ 5 8000 м 10/5 400 м
[Sc Ac trans Ci sp]
+26.1 +23.6 86 +35 +37 очень
душно
1012.1 1008.6
С 7 8000 м 10/5 360 м
[Cu med, cong Ac trans Ci sp]
+28.8 +23.3 72 +39 +40 очень
душно
1010.1 1006.5
С 5 9000 м 9/5 420 м
[Cu med, cong Ac trans Ci sp]
+27.8 +22.8 74 +37 +38 очень
душно
1008.6 1004.9
штиль 0 8000 м 10/4 450 м
[Sc Ac trans Ci sp]
+25.8 +23.3 86 +35 +35 очень
душно
1009.8 1006.1 +30.3
С 3 8000 м 9/4 450 м
[Sc Ac trans Ci sp]
+25.1 +23.7 92 +34 +34 очень
душно
1010.8 1007.2
штиль 0 7000 м 10/4 450 м
[Sc Ac trans Ci sp]
+24.5 +23.8 96 +33 +33 очень
душно
1010.1 1006.6
З 3 5000 м слаб. дождь 10/5 450 м
[Sc Ac trans Ci sp]
+23.8 +23.7 99 +32 +32 очень
душно
1008.6 1005.0 0.0
З 3 7000 м {дождь} 8/1 500 м
[Sc Ac trans Ci sp]
+23.9 +23.8 99 +32 +33 очень
душно
1009.4 1005.7 +23.0 0.1
С 2 10 км 8/3 360 м
[Sc Ac trans Ci sp]
+29.3 +23.4 71 +40 +46 очень
душно
1010.6 1007.1
С 3 10 км 9/6 400 м
[Cu med, cong Ac trans Ci sp]
+30.9 +24.4 68 +43 +47 опасность
перегрева
1008.7 1005.2
С 5 9000 м в посл. час гроза 9/4 300 м
[Cu med, cong Ac trans Ci sp]
+28.0 +23.9 78 +39 +40 очень
душно
1006.9 1003.2
С 3 8000 м {гроза} 10/3 270 м
[Sc Ac trans Cs]
+26.0 +23.8 88 +36 +36 очень
душно
1010.3 1004.9 +31.2
штиль 0 8000 м 8/3 360 м
[Sc Ac trans Ci sp]
+24.8 +24.0 95 +34 +34 очень
душно
1010.3 1006.7
З 3 8000 м 8/3 450 м
[Sc Ac trans Ci sp]
+24.4 +24.1 98 +34 +34 очень
душно
1009.7 1006.1
штиль 0 7000 м 8/3 500 м
[Sc Ac trans Ci sp]
+23.9 +23.9 100 +33 +33 очень
душно
1007.8 1004.2
штиль 0 5000 м мгла 8/1 300 м
[Sc Ac trans Ci sp]
+23.6 +23.5 99 +32 +32 очень
душно
1009.1 1005.6 +23.0
Местоположение метеостанции Пеканбару (Индонезия): широта 0.47 долгота 101.45 высота над уровнем моря 31 м.
В архиве по умолчанию представлена погода в Пеканбару за последнюю неделю. Архивные данные за месяц целиком и за предыдущие месяцы, начиная с января 2011 года, Вы можете получить, выбрав интересующий диапазон дат из раскрывающегося списка и нажав кнопку "Найти!".
*Определитесь, кто Вы:
Внимание! Время в таблицах - всемирное. Для получения местного времени необходимо прибавить поправку, которая равна 7 ч.
Смотрите также архив погоды в соседних городах и на ближайших метеорологических станциях:
Партнеры нашего сайта:      
Пояснения к столбцам:
  • Ветер - указаны скорость ветра в м/с - средняя за 10 мин, порывы в срок и между сроками (в фигурных скобках) и направление, откуда дует ветер: С - северный,
  • СВ - северо-восточный, В - восточный, ЮВ - юго-восточный, Ю - южный, ЮЗ - юго-западный, З - западный, СЗ - северо-западный.
  • Видимость - горизонтальная дальность видимости в метрах или километрах. При видимости от 1 до 10 км при отсутствии осадков обычно наблюдается дымка, при ухудшении видимости до 1 км и менее - туман. В сухую погоду видимость может ухудшаться дымом, пылью или мглою.
  • Явления - указаны атмосферные явления, наблюдавшиеся в срок или в последний час перед сроком; фигурными скобками обозначены явления, наблюдавшиеся между сроками (за 1-3 часа до срока); квадратными скобками обозначены град или гололедные отложения с указанием их диаметра в мм.
  • Облачность - указаны через наклонную черту общая и нижняя облачность в баллах и высота нижней границы облаков в метрах; квадратными скобками обозначены формы облаков: Ci - перистые, Cs - перисто-слоистые, Cc - перисто-кучевые, Ac - высококучевые, As - высокослоистые, Sc - слоисто-кучевые, Ns - слоисто-дождевые, Cu - кучевые, Cb - кучево-дождевые. Подробнее классификацию облаков см. в Атласе облаков (PDF).
  • T - Температура воздуха - температура, измеренная на высоте 2 м над землей.
  • Td - Температура точки росы - температура, при понижении до которой содержащийся в воздухе водяной пар достигнет насыщения.
  • f - Относительная влажность воздуха - влажноcть воздуха, измеренная на высоте 2 м над землей.
  • Te - Эффективная температура - температура, которую ощущает одетый по сезону человек в тени. Характеристика душности погоды. При расчете учитывается влияние влажности воздуха и скорости ветра на теплоощущения человека.
  • Tes - Эффективная температура на солнце - температура, которую ощущает человек, с поправкой на солнечный нагрев. Характеристика знойности погоды. Зависит от высоты солнца над горизонтом, облачности и скорости ветра. Ночью, в пасмурную погоду, а также при ветре 12 м/с и более поправка равна нулю.
  • P - Атмосферное давление - приведенное к уровню моря атмосферное давление.
  • Po - Атмосферное давление - измеренное на уровне метеостанции атмосферное давление.
  • Tmin - Минимальная температура - минимум температуры воздуха на высоте 2 м над землей.
  • Tmax - Максимальная температура - максимум температуры воздуха на высоте 2 м над землей.
  • R - Количество осадков - Количество выпавших осадков за период времени, мм. При наведении курсора мыши на число - период времени, за который выпало указанное количество осадков.
  • R24 - Количество осадков - Количество выпавших осадков за 24 часа, мм.
  • S - Снежный покров - Высота снежного покрова, см. При наведении курсора мыши на число - состояние снежного покрова и степень покрытия местности в баллах.